This is the latest recevied weather packets stored in our database for station/object WY1B. If no packets are shown the sender has not sent any weather packets the latest 10 day(s).
| Time | Temp. | Humidity | Pressure | Rain* | Wind** | Luminosity | Snow |
|---|---|---|---|---|---|---|---|
| 1787694611 | 49.44° C | 12% | 1003.1 hPa | 0 mm | - | 616 W/m² | - |
| 1787694310 | 48.89° C | 13% | 1003 hPa | 0 mm | - | 631 W/m² | - |
| 1787694006 | 48.89° C | 13% | 1003.2 hPa | 0 mm | - | 651 W/m² | - |
| 1787693701 | 48.89° C | 13% | 1003.4 hPa | 0 mm | - | 668 W/m² | - |
| 1787693397 | 48.89° C | 12% | 1003.3 hPa | 0 mm | - | 680 W/m² | - |
| 1787693093 | 48.89° C | 13% | 1003.4 hPa | 0 mm | - | 697 W/m² | - |
| 1787692789 | 48.89° C | 13% | 1003.5 hPa | 0 mm | - | 713 W/m² | - |
| 1787692484 | 48.89° C | 13% | 1003.6 hPa | 0 mm | - | 730 W/m² | - |
| 1787692183 | 48.89° C | 13% | 1003.9 hPa | 0 mm | - | 743 W/m² | - |
| 1787691883 | 48.89° C | 13% | 1003.8 hPa | 0 mm | - | 759 W/m² | - |
| 1787691583 | 49.44° C | 13% | 1003.9 hPa | 0 mm | - | 769 W/m² | - |
| 1787691281 | 48.33° C | 13% | 1003.9 hPa | 0 mm | - | 783 W/m² | - |
| 1787690976 | 48.33° C | 14% | 1004.3 hPa | 0 mm | - | 797 W/m² | - |
| 1787690676 | 48.89° C | 13% | 1004.3 hPa | 0 mm | - | 812 W/m² | - |
| 1787690371 | 48.89° C | 13% | 1004.1 hPa | 0 mm | - | 822 W/m² | - |
| 1787690067 | 48.89° C | 13% | 1004.5 hPa | 0 mm | - | 837 W/m² | - |
| 1787689763 | 48.33° C | 14% | 1004.5 hPa | 0 mm | - | 851 W/m² | - |
| 1787689459 | 48.33° C | 14% | 1004.4 hPa | 0 mm | - | 860 W/m² | - |
| 1787689158 | 47.78° C | 13% | 1004.5 hPa | 0 mm | - | 871 W/m² | - |
| 1787688854 | 47.78° C | 14% | 1004.6 hPa | 0 mm | - | 882 W/m² | - |
| 1787688549 | 47.22° C | 14% | 1004.6 hPa | 0 mm | - | 893 W/m² | - |
| 1787688250 | 48.33° C | 13% | 1004.7 hPa | 0 mm | - | 905 W/m² | - |
| 1787687945 | 47.78° C | 14% | 1005 hPa | 0 mm | - | 908 W/m² | - |
| 1787687641 | 47.22° C | 14% | 1004.8 hPa | 0 mm | - | 915 W/m² | - |
| 1787687336 | 47.22° C | 14% | 1004.8 hPa | 0 mm | - | 922 W/m² | - |
* Rain latest hour (hover to see other rain measurements)
** Current wind speed in m/s (hover to see current wind gust speed)